Phoenix Deer Valley, AZ

3:54 AM MST on November 15, 2019 (GMT -0700)
Phoenix-Deer Valley Municipal

Weather History for KDVT - September, 2019

Change the Weather History Date:

Monday, September 30, 2019

  Actual Average Record
Temperature  
Mean Temperature 74 °F -  
Max Temperature 86 °F 91 °F 102 °F (1997)
Min Temperature 63 °F 69 °F 61 °F (2014)
Cooling Degree Days 10    
Growing Degree Days 24 (Base 50)    
Moisture  
Dew Point 44 °F    
Average Humidity 35    
Maximum Humidity 60    
Minimum Humidity 17    
Precipitation  
Precipitation 0.00 in - - ()
Sea Level Pressure  
Sea Level Pressure 29.71 in    
Wind  
Wind Speed 3 mph ()    
Max Wind Speed 15 mph    
Max Gust Speed 21 mph    
Visibility 10.0 miles    
Events      
Averages and records for this station are not official NWS values.
T = Trace of Precipitation, MM = Missing Value Source: Averaged Metar Reports

Daily Weather History Graph

Daily Weather History Graph

Search for Another Location

Airport or City:

Astronomy

Sep. 30, 2019 Rise Set
Actual Time 6:21 AM MST 6:14 PM MST
Civil Twilight 5:57 AM MST 6:39 PM MST
Nautical Twilight 5:28 AM MST 7:07 PM MST
Astronomical Twilight 4:59 AM MST 7:36 PM MST
Moon 8:25 AM MST (9/30) 7:58 PM MST (9/30)
Length of Visible Light 12h 42m
Length of Day
11h 52m
Waxing Crescent, 6% of the Moon is Illuminated
Sep 30
Waxing Crescent
Oct 5
First Quarter
Oct 13
Full
Oct 21
Last Quarter
Oct 27
New

Hourly Weather History & Observations

Time (MST) Temp. Dew Point Humidity Pressure Visibility Wind Dir Wind Speed Gust Speed Precip Events Conditions
12:53 AM 71.1 °F 44.1 °F 38% 29.71 in 10.0 mi Calm Calm - N/A   Clear
1:53 AM 66.0 °F 50.0 °F 56% 29.73 in 10.0 mi Calm Calm - N/A   Clear
3:53 AM 63.0 °F 48.9 °F 60% 29.74 in 10.0 mi Calm Calm - N/A   Clear
4:53 AM 64.0 °F 46.0 °F 52% 29.75 in 10.0 mi NE 4.6 mph - N/A   Clear
5:53 AM 64.0 °F 45.0 °F 50% 29.75 in 10.0 mi Calm Calm - N/A   Clear
6:53 AM 64.9 °F 45.0 °F 48% 29.76 in 10.0 mi Calm Calm - N/A   Clear
7:53 AM 71.1 °F 45.0 °F 39% 29.77 in 10.0 mi East 3.5 mph - N/A   Clear
8:53 AM 75.0 °F 46.9 °F 37% 29.76 in 10.0 mi Calm Calm - N/A   Clear
9:53 AM 77.0 °F 45.0 °F 32% 29.76 in 10.0 mi South 5.8 mph - N/A   Clear
10:53 AM 81.0 °F 44.1 °F 27% 29.75 in 10.0 mi ESE 8.1 mph - N/A   Clear
11:53 AM 82.0 °F 48.9 °F 31% 29.74 in 10.0 mi Variable 6.9 mph - N/A   Clear
12:53 PM 84.0 °F 48.9 °F 29% 29.71 in 10.0 mi SSE 6.9 mph - N/A   Clear
1:53 PM 86.0 °F 45.0 °F 24% 29.68 in 10.0 mi WSW 15.0 mph 20.7 mph N/A   Clear
2:53 PM 84.9 °F 41.0 °F 21% 29.67 in 10.0 mi SSW 8.1 mph 17.3 mph N/A   Clear
3:53 PM 86.0 °F 39.9 °F 20% 29.66 in 10.0 mi SW 11.5 mph - N/A   Clear
4:53 PM 84.9 °F 41.0 °F 21% 29.65 in 10.0 mi West 8.1 mph - N/A   Clear
5:53 PM 84.0 °F 35.1 °F 17% 29.64 in 10.0 mi West 11.5 mph - N/A   Clear
6:53 PM 81.0 °F 39.0 °F 22% 29.65 in 10.0 mi SW 5.8 mph - N/A   Clear
7:53 PM 78.1 °F 39.9 °F 25% 29.65 in 10.0 mi Calm Calm - N/A   Clear
8:53 PM 75.9 °F 42.1 °F 30% 29.67 in 10.0 mi Calm Calm - N/A   Clear
9:53 PM 73.9 °F 43.0 °F 33% 29.68 in 10.0 mi Calm Calm - N/A   Clear
10:53 PM 70.0 °F 46.0 °F 42% 29.68 in 10.0 mi Calm Calm - N/A   Clear
11:53 PM 66.0 °F 46.0 °F 48% 29.68 in 10.0 mi Calm Calm - N/A   Clear